This demonstration page uses our WeatherBlox Daily Observations layout. Learn more.

Left ArrowRight Arrow

39.01783, -85.05884

Hourly Observations for October 7, 2022

Temp ( °F °C ) Dew Point ( °F °C ) Humidity (%) Winds ( mph kmh ) Pressure ( in mb ) Visibility ( mi km ) Precip ( " mm )
12:52 am 00:52 Clear 56 13.3 47 8.3 72 72 Calm 30.04 1017 10 16 0.00 0.00
1:52 am 01:52 Clear 52 11.1 48 8.9 86 86 Calm 30.04 1017 10 16 0.00 0.00
2:52 am 02:52 Clear 51 10.6 49 9.4 92 92 Calm 30.04 1017 10 16 0.00 0.00
3:52 am 03:52 Clear 54 12.2 49 9.4 83 83 NW 9 15 30.06 1018 10 16 0.00 0.00
4:52 am 04:52 Clear 53 11.7 49 9.4 86 86 N 8 13 30.07 1018 10 16 0.00 0.00
5:52 am 05:52 Clear 53 11.7 49 9.4 86 86 N 10 17 30.09 1019 10 16 0.00 0.00
6:52 am 06:52 Mostly Clear 52 11.1 46 7.8 80 80 N 10 17 30.12 1020 10 16 0.00 0.00
7:52 am 07:52 Mostly Sunny 50 10 46 7.8 86 86 NNW 9 15 30.15 1021 10 16 0.00 0.00
8:52 am 08:52 Mostly Cloudy 52 11.1 47 8.3 83 83 N 13 20 30.18 1022 10 16 0.00 0.00
9:52 am 09:52 Mostly Cloudy 55 12.8 48 8.9 77 77 N 13 20 30.19 1023 10 16 0.00 0.00
10:16 am 10:16 Mostly Cloudy 56 13.3 47 8.3 72 72 N 13 20 30.21 1023 10 16 0.00 0.00
10:29 am 10:29 Partly Cloudy 56 13.3 47 8.3 72 72 N 13 20 30.21 1023 10 16 0.00 0.00
10:52 am 10:52 Partly Cloudy 57 13.9 46 7.8 67 67 NNW 10 17 30.21 1023 10 16 0.00 0.00
11:52 am 11:52 Partly Cloudy 59 15 44 6.7 58 58 N 8 13 30.22 1023 10 16 0.00 0.00
12:52 pm 12:52 Mostly Cloudy 61 16.1 42 5.6 50 50 NNW 10 17 30.21 1023 10 16 0.00 0.00
1:52 pm 13:52 Mostly Cloudy 61 16.1 42 5.6 50 50 NNW 18 30 30.22 1023 10 16 0.00 0.00
2:52 pm 14:52 Mostly Sunny 60 15.6 39 3.9 46 46 NNW 14 22 30.22 1023 10 16 0.00 0.00
3:52 pm 15:52 Mostly Sunny 60 15.6 37 2.8 42 42 NW 14 22 30.21 1023 10 16 0.00 0.00
4:52 pm 16:52 Mostly Sunny 59 15 38 3.3 45 45 N 10 17 30.22 1023 10 16 0.00 0.00
5:52 pm 17:52 Mostly Sunny 58 14.4 36 2.2 44 44 N 15 24 30.23 1024 10 16 0.00 0.00
6:52 pm 18:52 Mostly Sunny 54 12.2 35 1.7 49 49 N 14 22 30.25 1025 10 16 0.00 0.00
7:52 pm 19:52 Clear 51 10.6 35 1.7 54 54 N 8 13 30.27 1025 10 16 0.00 0.00
8:52 pm 20:52 Clear 51 10.6 35 1.7 54 54 NNE 9 15 30.29 1026 10 16 0.00 0.00
9:52 pm 21:52 Clear 48 8.9 35 1.7 61 61 N 5 7 30.31 1026 10 16 0.00 0.00
10:52 pm 22:52 Clear 47 8.3 36 2.2 65 65 N 7 11 30.33 1027 10 16 0.00 0.00
11:52 pm 23:52 Clear 44 6.7 36 2.2 73 73 NNW 7 11 30.34 1027 10 16 0.00 0.00

Powered by AerisWeather